Location: Endfield
(51.6667°N, 0.0667°W)
Time: 14:40:31
(UTC+00:00)

Cosmos 44 - Pass Details

Date: 19 May 2024
Orbit: 579 x 777 km, 65.1° (Epoch: 16 June)

Event Time Altitude Azimuth Distance (km) Brightness Sun altitude
Rises 21:15:42 0° 316° (NW) 3,118 8.9 -10.1°
Reaches altitude 10° 21:18:10 10° 311° (NW) 2,162 7.3 -10.4°
Maximum altitude 21:22:53 48° 238° (WSW) 869 3.8 -10.8°
Enters shadow 21:26:41 14° 166° (SSE) 1,800 4.9 -11.2°
